Showing default

LEGION 5, 62900

Orbit data source: Space-Track

LEGION 5, 62900 is a payload satellite owned by Maxar Intel (US) in LEO that was launched on Tue, 04 Feb 2025 UTC via an FALCON 9 launch vehicle from the Air Force Eastern Test Range (AFETR). Payload-class satellites include a variety of spacecraft equipped with specific instruments for various scientific and technological missions. These include communications satellites like Starlink; space stations such as the ISS; scientific satellites like the Hubble; Earth observation satellites from companies like Planet Labs, Umbra, and HawkEye 360; GPS; miniature CubeSats for education and research; and military/defense satellites.

Loading next visibility...
Identifier
62900, 2025-025A
Orbit
LEO
Last TLE update
3 days ago
Origin
Manufacturer
Maxar Space Inf
Mission
Operational Commercial Imaging
Bus & Motor
LEGION, Unknown motor
Mass
~700 kg wet, 630 kg dry
Launch date (UTC)
2025-02-04 (5 months ago)
Launch vehicle
FALCON 9
Launch site
Air Force Eastern Test Range (AFETR)
Object type
Payload
Rocket body
Debris
Shape & HBR
Box + 1 Pan, 5 m
Radar Cross Section
9.079 m², Large (>1 m²)

Expand to show TLE details & history

TLE from 3 days ago
0 LEGION 5
1 62900U 25025A   25189.68358500  .00000105  00000-0  57609-4 0  9998
2 62900  45.0482 338.5960 0007351 199.1710 160.8870 14.56879952 22426
Epoch: 2025-07-08T16:24Z
TLE epoch observation values (Epoch: 2025-07-08T16:24:21.744Z)
Latitude
-0.00004°
Longitude
165.63032°
Altitude
708.189 km
Speed
7.501 km/s
True Right ascension
22h 34m 23s
True Declination
0° 00' 00"
Sunlit
Object was in full shadow at epoch
Visualization orbit readout
Latitude
-14.16174°
Longitude
138.40834°
Altitude
709.328 km
Speed
7.5 km/s
Apparent Right ascension
23h 25m 08s
Apparent Declination
-61° 33' 20"
Sunlit
Object is in full shadow
Visualization observer readout
Local Sidereal Time
19:08:23
Azimuth
152.031° SSE
Elevation
-23.899°
Doppler factor
1
Orbital elements
Apogee altitude
710.025 km
Perigee altitude
699.611 km
Semi-major axis
7,082.955 km
Eccentricity
0.00074
Inclination
45.0482°
RAAN
338.596°
Arg. of periapsis
199.171°
True anomaly
Unknown
Mean anomaly
160.887°
Eccentric anomaly
Unknown
Mean motion
3.64101 °/min
Orbital period
98.87 mins
BSTAR
0.000057609
Loading maneuver chart data...
Loading SW <> Apogee altitude chart data...
Loading historical data...
Loading historical data...
Loading historical data...
Loading historical data...
Loading historical data...
Loading historical data...
Loading historical data...
Other satellites on launch #25 in the year 2025 (2025-02-04 UTC)

LEGION 5 Visibility forecast

Observer location: undefined°, undefined°

Span
Click to sort rows by Start time (UTC) header in descending order
Start Az.
Max El. time (UTC)
Max El. Az.
Max El.
End time (UTC)
End Az.
8 mins2025-07-11 12:04:06.501Z214.807° SW2025-07-11 12:08:06.501Z140.786° SSE35.827°2025-07-11 12:12:06.501Z76.431° E
8 mins2025-07-11 13:48:06.501Z266.259° W2025-07-11 13:52:06.501Z8.635° NNE40.907°2025-07-11 13:56:06.501Z63.891° ENE
7 mins2025-07-11 15:33:06.501Z299.549° NW2025-07-11 15:36:06.501Z6.946° NNE36.19°2025-07-11 15:40:06.501Z74.724° E
8 mins2025-07-11 17:17:06.501Z295.921° NW2025-07-11 17:20:06.501Z1.488° NNE44.73°2025-07-11 17:25:06.501Z110.98° ESE
6 mins2025-07-11 19:01:06.501Z263.214° W2025-07-11 19:04:06.501Z209.389° SW25.109°2025-07-11 19:07:06.501Z166.291° S
|